Lid_Strength_Index
4 4 4 4 4 4 4 5 4 4 4 4 4 4 3 3 3 5 9 7 6 -2 -2 0 6 7 3 4 4 4 10 13 11 10 10 6 7 5 4 6 5 4 4 3 2
4 4 4 4 4 4 4 4 4 4 4 4 4 4 3 3 5 8 3 3 -0 -2 2 7 8 5 5 6 5 7 11 11 8 8 8 7 6 6 6 6 7 6 3 2 2
4 4 4 4 4 4 4 4 4 4 4 4 4 3 3 3 8 9 -1 0 -1 -2 3 6 6 6 6 6 7 8 11 9 8 7 7 7 7 5 7 8 6 6 5 3 3
4 4 4 4 4 4 4 4 4 4 4 4 3 3 3 5 11 4 -2 -1 -2 1 5 5 6 7 7 8 6 10 8 8 7 6 7 7 6 7 6 6 4 4 4 3 4
4 4 4 4 4 4 4 4 4 4 4 4 3 3 5 9 9 3 -1 -2 0 4 6 8 7 7 8 7 7 9 8 7 6 7 6 6 7 7 7 4 3 3 4 4 3
4 4 4 4 4 4 4 4 4 4 4 4 3 3 6 10 4 0 -0 3 4 6 7 7 6 6 8 7 7 7 7 7 7 7 7 8 7 6 6 4 4 4 4 4 3
4 4 5 5 5 4 5 5 4 4 4 4 3 4 9 9 4 1 3 6 6 7 7 11 8 7 6 8 6 7 9 8 8 7 8 7 10 9 5 5 5 5 4 4 3
4 5 5 5 5 5 5 5 5 4 4 4 3 5 10 7 4 3 3 5 7 7 7 7 9 8 8 5 7 9 9 13 9 8 8 8 13 8 6 6 6 5 5 4 4
4 4 4 4 4 5 5 5 4 4 3 3 4 6 8 2 5 4 3 5 6 7 7 7 9 8 8 8 11 10 14 13 12 8 9 9 12 8 6 6 7 6 5 5 4
5 4 4 4 4 5 5 4 3 3 2 3 4 7 5 6 5 4 3 5 7 7 7 8 9 10 9 8 13 13 13 13 13 10 10 11 11 9 7 7 7 6 5 5 4
4 4 4 5 5 5 6 5 5 6 4 6 6 6 5 4 3 5 4 5 5 7 9 8 8 10 10 9 8 10 11 12 11 9 10 11 11 10 8 7 7 6 6 5 4
4 4 4 5 5 6 6 6 5 5 8 6 5 5 4 4 6 6 3 5 6 8 7 7 9 9 9 7 8 9 11 12 11 9 10 11 12 9 8 8 7 7 6 5 4
4 4 5 5 5 6 6 5 4 4 7 6 5 5 4 4 6 6 5 5 6 7 8 8 8 8 8 9 10 8 10 12 12 10 10 11 13 11 9 8 7 6 5 4 4
4 4 5 6 7 6 6 5 4 4 8 8 6 5 5 5 6 4 3 4 7 7 7 8 7 8 9 10 9 10 9 10 11 12 16 11 18 13 11 10 8 7 6 5 4
4 5 5 6 7 6 6 4 5 5 14 6 7 4 6 6 6 6 4 5 8 8 7 8 9 8 9 9 8 11 8 10 10 12 13 14 16 14 11 12 10 8 6 5 4
4 5 5 7 6 5 4 5 5 9 14 8 6 7 7 6 5 6 5 4 6 8 8 7 7 7 7 7 7 7 9 10 10 12 17 14 15 15 13 11 9 8 7 6 4
5 6 6 6 7 5 4 4 9 12 7 9 8 7 7 7 7 6 7 7 8 11 10 8 8 7 5 9 8 8 9 14 15 17 16 13 15 13 9 8 8 7 7 5 4
6 7 6 6 5 4 4 6 13 10 9 7 7 7 9 8 8 7 8 8 7 8 8 10 11 7 6 7 9 9 9 13 18 18 15 13 16 12 8 7 6 6 6 6 5
6 6 6 5 5 4 5 10 10 9 7 8 7 9 9 8 8 8 8 8 7 7 9 10 10 7 6 7 7 10 11 9 13 12 14 13 12 10 8 8 7 6 6 6 5
5 5 6 5 4 5 6 10 8 6 6 7 10 9 10 9 9 9 9 7 7 7 7 8 11 7 7 6 7 8 7 12 12 17 18 13 14 14 11 10 8 7 6 6 5
5 5 5 4 6 5 8 8 7 5 5 7 8 9 9 10 9 10 9 7 6 6 6 7 9 9 8 9 9 10 10 10 10 11 15 16 15 10 11 9 9 7 6 6 5
7 6 4 5 7 8 7 7 7 6 6 6 6 7 8 9 9 9 10 8 5 6 8 7 8 11 10 8 7 8 9 9 12 14 12 12 14 9 9 8 7 7 6 5 4
7 5 3 5 8 7 7 7 6 6 8 7 7 6 7 8 10 9 8 6 5 6 7 7 9 12 11 9 8 9 8 9 11 10 13 13 13 8 8 8 7 7 6 6 5
7 7 5 6 7 7 8 8 7 6 7 6 6 6 7 8 7 9 8 6 6 6 4 5 9 11 12 12 10 11 11 9 9 11 11 11 13 11 9 9 8 7 6 6 5
6 7 6 8 7 7 7 8 8 8 7 6 7 7 8 9 9 9 8 7 6 5 6 6 10 10 10 10 10 11 12 10 9 10 11 11 13 11 9 9 8 7 6 6 6
6 7 5 6 7 7 8 8 8 7 7 7 7 8 8 8 8 9 9 8 9 7 7 7 10 9 11 9 9 11 10 10 11 11 11 11 12 8 8 7 8 7 7 7 6
5 5 5 8 7 8 7 7 8 7 7 7 6 7 8 7 6 6 7 8 8 9 8 8 9 10 12 10 10 12 11 10 11 10 10 12 10 8 9 8 8 7 6 6 6